Location: Dackenheim
(49.5215°N, 8.1854°E)
Time: 07:37:26
(UTC+00:00)

LilacSat-2 - Visible Passes

Search period start: 11 March 2026 00:00
Search period end: 21 March 2026 00:00
Orbit: 418 x 426 km, 97.5° (Epoch: 10 March)

Date Brightness Start Highest point End Pass type
(mag) Time Alt. Az. Time Alt. Az. Time Alt. Az.
11 Mar ? 18:48:46 10° S 18:51:55 46° W 18:55:06 10° NNW visible
12 Mar ? 18:05:22 10° SE 18:08:30 45° ENE 18:11:39 10° N visible
12 Mar ? 19:39:26 10° WSW 19:40:56 13° W 19:42:28 10° WNW visible
13 Mar ? 18:54:07 10° S 18:57:12 40° W 19:00:19 10° NNW visible
14 Mar ? 18:10:31 10° SSE 18:13:41 52° ENE 18:16:53 10° N visible
14 Mar ? 19:45:10 10° WSW 19:46:11 11° W 19:47:13 10° WNW visible
15 Mar ? 18:59:19 10° SSW 19:02:20 35° W 19:05:22 10° NNW visible
16 Mar ? 18:15:30 10° SSE 18:18:43 60° ENE 18:21:57 10° N visible
17 Mar ? 19:04:23 10° SSW 19:07:18 30° W 19:10:15 10° NNW visible
18 Mar ? 18:20:21 10° SSE 18:23:35 70° ENE 18:26:51 10° N visible
19 Mar ? 19:09:19 10° SSW 19:12:09 27° W 19:14:59 10° NW visible
20 Mar ? 18:25:05 10° SSE 18:28:19 80° ENE 18:31:35 10° N visible
